Regional Weather Roundup
Issued by NWS

Home | Current Version | Previous Version | Text Only | Print | Product List | Glossary On
Versions: 1 2 3 4 5 6 7 8 9 10 11 12 13 14 15 16 17 18 19 20 21 22 23 24 25 26 27 28 29 30 31 32 33 34 35 36 37 38 39 40 41 42 43 44 45 46 47 48 49 50
000
ASUS43 KDMX 220701
RWRIA

WEATHER ROUNDUP FOR IOWA
NATIONAL WEATHER SERVICE DES MOINES IA
200 AM CDT TUE MAY 22 2018

NOTE: "FAIR" INDICATES FEW OR NO CLOUDS BELOW 12,000 FEET WITH NO
SIGNIFICANT WEATHER AND/OR OBSTRUCTIONS TO VISIBILITY.

* - THESE STATIONS ARE NOT NWS STATIONS...THUS NOT UNDER NWS
QUALITY CONTROL.  THEY ALSO DO NOT REPORT WEATHER SUCH
AS PRECIPITATION OR FOG.

IAZ001>003-012>014-020>022-031>034-043>046-220800-
   NORTHWEST IOWA

CITY           SKY/WX    TMP DP  RH WIND       PRES   REMARKS
CARROLL *      CLOUDY   N/A N/A N/A CALM      30.00S
CHEROKEE *     FOG       53  53 100 CALM      30.01R VSB 1/4
DENISON *      CLOUDY    55  55 100 CALM      30.02R
LE MARS *      CLEAR     55  54  94 CALM      29.99S
ORANGE CITY *  CLEAR     57  55  94 E3        30.00S FOG
SHELDON *      FOG       55  55 100 SE7       29.99S VSB<1/4
SIOUX CITY     CLOUDY    55  53  93 E5        29.99S
SPENCER        FOG       57  56  96 CALM      30.01S VSB 1/4
STORM LAKE *   FOG       55  55 100 SE5       30.01S VSB<1/4
$$

IAZ055>058-069>071-079>083-090>094-220800-
   SOUTHWEST IOWA

CITY           SKY/WX    TMP DP  RH WIND       PRES   REMARKS
ATLANTIC *     CLOUDY    61  57  88 CALM      30.01R
AUDUBON *      CLOUDY    55  54  94 CALM      30.02R
CLARINDA *       N/A     61  59  94 S5        30.02S
COUNCIL BLFS * CLOUDY    61  61 100 SE7       30.00R
CRESTON *      CLOUDY    61  57  88 SE3       30.03F
HARLAN  *      CLOUDY    61  59  94 CALM      30.03S
LAMONI         CLEAR     61  58  90 CALM      30.02F
RED OAK *      MOCLDY    63  57  82 CALM      30.00S
SHENANDOAH *   CLOUDY    64  59  82 S9        29.99S
$$

IAZ047>049-059>061-072>074-084-220800-
   CENTRAL IOWA

CITY           SKY/WX    TMP DP  RH WIND       PRES   REMARKS
AMES           FOG       57  56  96 CALM      30.01S VSB 1/4
ANKENY *       CLOUDY    59  59 100 CALM      30.01F FOG
BOONE *        FOG       57  57 100 SE5       30.00F VSB<1/4
CHARITON *     CLOUDY    61  59  94 W7        30.02S
DES MOINES     CLOUDY    62  60  93 SE3       30.00S
GRINNELL*      CLOUDY    60  58  96 S3        30.03S FOG
KNOXVILLE *    CLOUDY    63  61  94 S5        30.00S FOG
MARSHALLTOWN   FOG       56  56 100 S5        30.00F VSB 1/4
NEWTON *       MOCLDY    61  61 100 SE6       30.01F FOG
PELLA *          N/A     61  59  94 SE3       30.03S FOG
PERRY *        FAIR      56  56  98 CALM      30.00F
$$

IAZ004>006-015-016-023>025-035-036-220800-
   NORTH CENTRAL IOWA

CITY           SKY/WX    TMP DP  RH WIND       PRES   REMARKS
ALGONA *       FOG       54  54 100 SW5       30.01S VSB<1/4
CLARION *      PTCLDY    57  55  94 S6        30.00F FOG
ESTHERVILLE    FOG       54  54 100 SW5       30.00S VSB 1/4
FORT DODGE *   FOG       55  54  96 CALM      30.01S VSB 3/4
MASON CITY     FOG       53  53 100 CALM      30.01F VSB 1/4
FOREST CITY *  FOG       54  54 100 CALM      30.01R VSB<1/4
WEBSTER CITY * FOG       55  55 100 SE3       29.99S VSB 1/4
IOWA FALLS *   CLOUDY    57  57  98 CALM      30.02F FOG
$$

IAZ007>011-017>019-026>030-037>042-050>054-066-220800-
   NORTHEAST IOWA

CITY           SKY/WX    TMP DP  RH WIND       PRES   REMARKS
CEDAR RAPIDS   FOG       56  56 100 S5        30.00S VSB 1/4
CHARLES CITY * CLOUDY    57  55  94 CALM      30.01S FOG
CLINTON *      CLOUDY   N/A N/A N/A W13       30.00F
DECORAH *      FOG       57  57 100 CALM      30.00S VSB<1/4
DUBUQUE        FOG       59  58  96 W3        30.00S VSB 3/4
MONTICELLO *   CLOUDY    61  61 100 W3        30.00S
OELWEIN *      CLOUDY    59  59 100 SW3       30.01F
WATERLOO       CLOUDY    59  59 100 W3        30.00S FOG
$$

IAZ064-065-067-068-078-220800-
   EAST CENTRAL IOWA

CITY           SKY/WX    TMP DP  RH WIND       PRES   REMARKS
DAVENPORT      CLOUDY    61  59  93 NW8       30.02F FOG
IOWA CITY      CLOUDY    60  58  92 NW3       30.01F
MUSCATINE *    FAIR      57  55  94 CALM      30.01F FOG
QUAD CITIES    FAIR      62  59  90 W6        30.00S
$$

IAZ062-063-075>077-085>089-095>099-220800-
   SOUTHEAST IOWA

CITY           SKY/WX    TMP DP  RH WIND       PRES   REMARKS
BURLINGTON     CLEAR     61  59  93 N7        29.99F FOG
FAIRFIELD *    FOG       57  57 100 CALM      30.01F VSB 1/4
FORT MADISON * CLEAR     61  61 100 CALM      30.01F FOG
KEOKUK *       CLEAR     61  61 100 CALM      30.00R
OSKALOOSA *    FAIR      59  58  97 S5        30.02S FOG
CENTERVILLE *    N/A     57  57 100 CALM      30.03F
OTTUMWA        CLOUDY    58  58 100 CALM      30.01F FOG
WASHINGTON *   CLEAR     59  59 100 CALM      30.02F FOG
$$

ABBREVIATIONS USED IN REMARKS
   TC - TEMPERATURES IN CELSIUS
  WCI - WIND CHILL INDEX
   HX - HEAT INDEX
  VSB - VISIBILITY
$$





USA.gov is the U.S. government's official web portal to all federal, state and local government web resources and services.